Weather History for Punta Gorda, FL

Change the Weather History Date:

Thursday, April 17, 2014

  Actual Average Record
Temperature  
Mean Temperature 75 °F -  
Max Temperature 87 °F 81 °F 90 °F (2012)
Min Temperature 66 °F 58 °F 48 °F (2005)
Cooling Degree Days 10    
Growing Degree Days 25 (Base 50)    
Moisture  
Dew Point 67 °F    
Average Humidity 82    
Maximum Humidity 91    
Minimum Humidity 57    
Precipitation  
Precipitation 1.08 in - - ()
Sea Level Pressure  
Sea Level Pressure 30.12 in    
Wind  
Wind Speed 11 mph (ENE)    
Max Wind Speed 22 mph    
Max Gust Speed 31 mph    
Visibility 8 miles    
Events Rain , Thunderstorm    
Averages and records for this station are not official NWS values.
T = Trace of Precipitation, MM = Missing Value Source: NWS Daily Summary

Daily Weather History Graph

Daily Weather History Graph

Search for Another Location

Airport:

Trip Planner

Search our weather history database for the weather conditions in past years. The results will help you decide how hot, cold, wet, or windy it might be!

Date:

Astronomy

Apr. 17, 2014 Rise Set
Actual Time 7:02 AM EDT 7:53 PM EDT
Civil Twilight 6:38 AM EDT 8:17 PM EDT
Nautical Twilight 6:10 AM EDT 8:45 PM EDT
Astronomical Twilight 5:41 AM EDT 9:14 PM EDT
Moon 10:26 PM EDT (4/17) 8:42 AM EDT (4/17)
Length of Visible Light 13h 38m
Length of Day
12h 51m
Waning Gibbous, 94% of the Moon is Illuminated
Apr 17
Waning Gibbous
Apr 22
Last Quarter
Apr 29
New
May 6
First Quarter
May 14
Full

Hourly Weather History & Observations

Time (EDT) Temp. Heat Index Dew Point Humidity Pressure Visibility Wind Dir Wind Speed Gust Speed Precip Events Conditions
12:53 AM 68.0 °F - 62.1 °F 81% 30.13 in 10.0 mi NE 8.1 mph - N/A   Mostly Cloudy
1:53 AM 68.0 °F - 62.1 °F 81% 30.11 in 10.0 mi NE 9.2 mph - N/A   Overcast
2:53 AM 68.0 °F - 62.1 °F 81% 30.10 in 10.0 mi ENE 11.5 mph - N/A   Overcast
3:53 AM 68.0 °F - 62.1 °F 81% 30.08 in 10.0 mi ENE 11.5 mph - N/A   Scattered Clouds
4:53 AM 66.9 °F - 62.1 °F 84% 30.09 in 10.0 mi ENE 8.1 mph - N/A   Clear
5:53 AM 66.0 °F - 62.1 °F 87% 30.10 in 10.0 mi NNE 5.8 mph - N/A   Clear
6:53 AM 66.0 °F - 62.1 °F 87% 30.13 in 10.0 mi NNE 5.8 mph - N/A   Mostly Cloudy
7:53 AM 66.9 °F - 63.0 °F 87% 30.14 in 10.0 mi NNE 6.9 mph - N/A   Partly Cloudy
8:07 AM 68.0 °F - 63.0 °F 84% 30.14 in 10.0 mi NE 6.9 mph - N/A   Mostly Cloudy
8:39 AM 71.1 °F - 64.0 °F 78% 30.14 in 10.0 mi NE 9.2 mph - N/A   Scattered Clouds
8:53 AM 72.0 °F - 64.0 °F 76% 30.15 in 10.0 mi ENE 10.4 mph - N/A   Clear
9:38 AM 75.9 °F - 66.0 °F 71% 30.16 in 10.0 mi ENE 10.4 mph - N/A   Mostly Cloudy
9:53 AM 77.0 °F - 66.9 °F 71% 30.17 in 10.0 mi ENE 12.7 mph - N/A   Scattered Clouds
10:53 AM 80.1 °F 82.9 °F 69.1 °F 69% 30.17 in 10.0 mi East 12.7 mph - N/A   Partly Cloudy
11:18 AM 82.9 °F 86.5 °F 69.1 °F 63% 30.16 in 10.0 mi ENE 12.7 mph - N/A   Mostly Cloudy
11:43 AM 82.0 °F 85.5 °F 69.1 °F 65% 30.16 in 10.0 mi East 12.7 mph 18.4 mph N/A   Overcast
1:53 PM 84.9 °F 88.2 °F 68.0 °F 57% 30.12 in 10.0 mi East 9.2 mph - N/A   Mostly Cloudy
2:53 PM 82.9 °F 87.0 °F 70.0 °F 65% 30.10 in 10.0 mi ENE 13.8 mph - N/A   Overcast
3:53 PM 81.0 °F 84.4 °F 70.0 °F 69% 30.08 in 10.0 mi ENE 21.9 mph 31.1 mph 0.00 in Rain Light Rain
4:31 PM 81.0 °F 84.1 °F 69.1 °F 67% 30.07 in 10.0 mi ENE 20.7 mph 26.5 mph 0.00 in   Overcast
4:42 PM 75.9 °F - 71.1 °F 85% 30.09 in 2.0 mi East 17.3 mph 28.8 mph 0.17 in Rain , Thunderstorm Heavy Thunderstorms and Rain
4:53 PM 75.0 °F - 71.1 °F 87% 30.09 in 1.0 mi ENE 19.6 mph 25.3 mph 0.36 in Rain , Thunderstorm Heavy Thunderstorms and Rain
5:12 PM 75.0 °F - 71.1 °F 87% 30.08 in 9.0 mi ENE 16.1 mph - 0.07 in Rain , Thunderstorm Light Thunderstorms and Rain
5:26 PM 75.0 °F - 71.1 °F 87% 30.08 in 10.0 mi ESE 11.5 mph - 0.07 in Thunderstorm Overcast
5:35 PM 75.0 °F - 71.1 °F 87% 30.08 in 2.5 mi SE 19.6 mph 24.2 mph 0.16 in Rain , Thunderstorm Heavy Rain
5:38 PM 73.0 °F - 69.1 °F 87% 30.08 in 1.5 mi SE 15.0 mph 24.2 mph 0.21 in Rain Heavy Rain
5:50 PM 71.6 °F - 66.2 °F 83% 30.10 in 0.8 mi SE 11.5 mph - 0.62 in Rain Heavy Rain
5:53 PM 70.0 °F - 66.9 °F 90% 30.11 in 0.8 mi SE 9.2 mph - 0.66 in Rain Heavy Rain
5:56 PM 70.0 °F - 66.9 °F 90% 30.11 in 1.2 mi SE 8.1 mph 18.4 mph 0.02 in Rain , Thunderstorm Heavy Rain
6:00 PM 71.1 °F - 66.9 °F 87% 30.11 in 2.0 mi SE 9.2 mph - 0.03 in Rain , Thunderstorm Rain
6:08 PM 71.1 °F - 66.9 °F 87% 30.12 in 9.0 mi SE 4.6 mph - 0.03 in Rain , Thunderstorm Light Rain
6:36 PM 71.1 °F - 68.0 °F 90% 30.12 in 10.0 mi ENE 12.7 mph - 0.04 in Rain , Thunderstorm Light Thunderstorms and Rain
6:51 PM 71.6 °F - 66.2 °F 83% 30.12 in 10.0 mi ENE 11.5 mph - 0.04 in Rain Light Rain
6:53 PM 71.1 °F - 66.9 °F 87% 30.12 in 10.0 mi ENE 10.4 mph - 0.04 in Rain Light Rain
7:53 PM 71.1 °F - 68.0 °F 90% 30.11 in 10.0 mi ENE 11.5 mph - 0.02 in   Mostly Cloudy
8:53 PM 72.0 °F - 69.1 °F 91% 30.13 in 10.0 mi ENE 12.7 mph - N/A   Partly Cloudy
9:53 PM 72.0 °F - 69.1 °F 91% 30.14 in 10.0 mi ENE 10.4 mph - N/A   Mostly Cloudy
10:05 PM 72.0 °F - 69.1 °F 91% 30.14 in 10.0 mi ENE 10.4 mph - N/A   Mostly Cloudy
10:32 PM 72.0 °F - 69.1 °F 91% 30.13 in 10.0 mi ENE 11.5 mph - N/A   Mostly Cloudy
10:53 PM 72.0 °F - 69.1 °F 91% 30.14 in 10.0 mi ENE 11.5 mph - N/A   Mostly Cloudy
11:53 PM 72.0 °F - 69.1 °F 91% 30.12 in 10.0 mi East 12.7 mph - N/A   Partly Cloudy